[[{"header":{"parameterUnit":"m.s-1","parameterCategory":1,"la1":30.2991,"la2":30.254,"lo1":-89.0895,"lo2":-89.0444,"dy":0.0017,"dx":0.0017,"nx":28,"ny":28,"refTime":"2024-05-06T03:00:00:Z","depth":0,"parameterNumber":2,"parameterNumberName":"U-component_of_WINDS"},"data":[0,0,0,0,0,0,0,0,0,0,0,0,0,0,0,0,0,0,0,0,0,0,0,0,0,0,0,0,0,0,0,0,0,0,0,0,0,0,0,0,0,0,0,0,0,0,0,0,0,0,0,0,0,0,0,0,0,0,-2.1019,-2.102,0,-2.112,-2.1121,-2.1122,-2.1118,-2.1117,-2.1115,-2.1114,-2.1219,-2.1223,-2.1227,0,0,0,0,0,0,0,0,0,0,0,0,0,-2.0826,-2.0829,-2.1019,-2.102,-2.1021,-2.1119,-2.1121,-2.1122,-2.1118,-2.1117,-2.1115,-2.1113,-2.1217,-2.1222,-2.1227,0,0,0,0,0,0,0,0,0,0,0,0,0,-2.0916,-2.0831,-2.1019,-2.1031,-2.1033,-2.1119,-2.1121,-2.1122,-2.1119,-2.1117,-2.1114,-2.1112,-2.1216,-2.1222,-2.1228,-2.1308,0,0,-2.1246,-2.1249,0,0,0,0,0,0,0,0,-2.0911,-2.0923,-2.1028,-2.1031,-2.1033,-2.1104,-2.1091,-2.1185,-2.1119,-2.1086,-2.1114,-2.1111,-2.1182,-2.1191,-2.1215,-2.1313,-2.1317,-2.1247,-2.1251,-2.1253,-2.1255,0,0,0,0,0,0,0,-2.0905,-2.0919,-2.1059,-2.103,-2.1033,-2.1033,-2.1043,-2.1109,-2.1145,-2.1089,-2.1089,-2.1101,-2.1183,-2.1209,-2.1217,-2.1319,-2.1247,-2.1252,-2.1256,-2.1258,-2.1489,-2.1492,0,0,0,0,0,0,-2.0896,-2.0914,-2.1056,-2.1062,-2.0966,-2.1038,-2.105,-2.1083,-2.1144,-2.1151,-2.1103,-2.11,-2.1199,-2.121,-2.1221,-2.1319,-2.1253,-2.1259,-2.1263,-2.1487,-2.149,-2.1492,0,0,0,0,0,0,-2.0892,-2.0908,-2.1051,-2.0988,-2.1006,-2.1043,-2.1081,-2.1087,-2.1112,-2.1154,-2.1161,-2.1122,-2.1198,-2.1212,-2.1286,-2.1323,-2.1262,-2.1267,-2.1484,-2.1488,-2.1491,-2.1517,0,0,0,0,0,0,-2.0886,-2.0907,-2.0937,-2.0989,-2.1009,-2.1115,-2.1084,-2.109,-2.1122,-2.112,-2.1174,-2.1181,-2.1197,-2.1277,-2.1293,-2.133,-2.1272,-2.1481,-2.1486,-2.149,-2.1513,-2.1521,-2.1528,0,0,0,0,0,-2.0879,-2.0941,-2.0939,-2.0956,-2.1048,-2.1117,-2.1129,-2.1146,-2.1125,-2.1157,-2.1184,-2.1179,-2.1316,-2.1285,-2.1302,-2.1342,-2.1479,-2.1484,-2.149,-2.151,-2.152,-2.1528,0,0,0,0,0,0,-2.0893,-2.0948,-2.0946,-2.1026,-2.1067,-2.1116,-2.1156,-2.1156,-2.1204,-2.12,-2.122,-2.1232,-2.1306,-2.1332,-2.1296,-2.1424,-2.1395,-2.1404,-2.1405,-2.1414,-2.1422,-2.1414,-2.1277,0,0,0,0,0,-2.0905,-2.0956,-2.1001,-2.1067,-2.1088,-2.1118,-2.1149,-2.1159,-2.1202,-2.122,-2.1252,-2.1295,-2.1348,-2.1382,-2.1433,-2.1517,-2.1529,-2.1553,-2.156,-2.1566,-2.1574,-2.1621,-2.1633,-2.151,-2.151,-2.151,0,0,-2.0931,-2.0967,-2.0998,-2.1071,-2.1104,-2.1157,-2.1133,-2.119,-2.123,-2.1228,-2.1301,-2.1326,-2.1376,-2.1455,-2.1492,-2.1479,-2.1611,-2.1573,-2.1578,-2.1583,-2.1628,-2.164,-2.165,-2.1514,-2.1514,-2.1513,0,0,-2.1006,-2.1038,-2.1097,-2.113,-2.118,-2.12,-2.1214,-2.1264,-2.1281,-2.1354,-2.1354,-2.1402,-2.1493,-2.1528,-2.1558,-2.1647,-2.1645,-2.1663,-2.1702,-2.1748,-2.1757,-2.1766,-2.1799,-2.181,-2.167,-2.167,-2.167,0,-2.1032,-2.1111,-2.1127,-2.1185,-2.1217,-2.1218,-2.1279,-2.131,-2.1375,-2.1398,-2.1382,-2.1496,-2.1529,-2.1617,-2.1639,-2.1663,-2.168,-2.1657,-2.1754,-2.1763,-2.1772,-2.1803,-2.1815,-2.1672,-2.1672,-2.1672,-2.1672,0,-2.1142,-2.1197,-2.1238,-2.13,-2.1337,-2.1396,-2.1422,-2.1458,-2.1464,-2.1486,-2.1561,-2.1601,-2.166,-2.1682,-2.1689,-2.1771,-2.1762,-2.175,-2.1722,-2.1785,-2.1815,-2.1827,-2.1675,-2.1674,-2.1674,-2.1673,0,0,-2.1228,-2.1298,-2.1313,-2.1341,-2.1397,-2.144,-2.1499,-2.1557,-2.1588,-2.1632,-2.1683,-2.176,-2.1749,-2.1783,-2.1794,-2.1834,-2.1903,-2.1818,-2.1819,-2.1833,-2.1998,-2.2007,-2.2021,-2.1902,-2.1904,-2.1906,-2.1994,0,-2.1309,-2.1413,-2.143,-2.1522,-2.1573,-2.1575,-2.1627,-2.1667,-2.1689,-2.1737,-2.1762,-2.1816,-2.1798,-2.1819,-2.1858,-2.1886,-2.1937,-2.188,-2.1951,-2.1953,-2.1939,-2.2036,-2.2046,-2.2127,-2.2006,-2.2008,-2.2009,0,-2.1417,-2.1464,-2.1561,-2.161,-2.1633,-2.1679,-2.1733,-2.1779,-2.1825,-2.1838,-2.1876,-2.1883,-2.1945,-2.1914,-2.2001,-2.1962,-2.1992,-2.201,-2.2014,-2.2021,-2.1985,-2.2047,-2.2153,-2.2166,-2.2028,-2.2026,-2.2025,0,-2.1472,-2.1559,-2.1629,-2.1653,-2.1712,-2.1744,-2.177,-2.1814,-2.1848,-2.1896,-2.1918,-2.1973,-2.2003,-2.2046,-2.2068,-2.2043,-2.2154,-2.2124,-2.2168,-2.2167,-2.2191,-2.219,-2.2304,-2.2209,-2.2209,-2.2209,-2.2209,0,-2.1561,-2.162,-2.1654,-2.1697,-2.1764,-2.1783,-2.1849,-2.1874,-2.1913,-2.1962,-2.1967,-2.2013,-2.2038,-2.2088,-2.2105,-2.2175,-2.2188,-2.2202,-2.2206,-2.2202,-2.22,-2.2222,-2.2217,-2.2212,-2.2211,-2.2211,-2.221,0,-2.1633,-2.1658,-2.1734,-2.1783,-2.1797,-2.1844,-2.1887,-2.1929,-2.1951,-2.2013,-2.2029,-2.2064,-2.2123,-2.2148,-2.2221,-2.2232,-2.2313,-2.2312,-2.2297,-2.2299,-2.2341,-2.2337,-2.2475,-2.2494,-2.2386,-2.2387,-2.2387,0,-2.1689,-2.1735,-2.1789,-2.1821,-2.1848,-2.1901,-2.1935,-2.1956,-2.1992,-2.2048,-2.2084,-2.2142,-2.2191,-2.2285,-2.2317,-2.2373,-2.2375,-2.2419,-2.2383,-2.2378,-2.2377,-2.2374,-2.2379,-2.2426,-2.2427,-2.2428,-2.2428,0,-2.1785,-2.1795,-2.1845,-2.1898,-2.1939,-2.1983,-2.2026,-2.2052,-2.208,-2.212,-2.218,-2.2217,-2.2291,-2.235,-2.2408,-2.2436,-2.2438,-2.2439,-2.2453,-2.2449,-2.2439,-2.2446,-2.2316,-2.2436,-2.2435,-2.2435,-2.2434,-2.2434,-2.1852,-2.1893,-2.1938,-2.1993,-2.2027,-2.2066,-2.2109,-2.2136,-2.2186,-2.2248,-2.2257,-2.2321,-2.2367,-2.2445,-2.2475,-2.2526,-2.2515,-2.2534,-2.2539,-2.2544,-2.2547,-2.243,-2.2537,-2.2537,-2.2536,-2.2536,-2.2536,0,-2.195,-2.1978,-2.2029,-2.2088,-2.2131,-2.2128,-2.2175,-2.2212,-2.2268,-2.231,-2.2358,-2.2427,-2.2484,-2.2521,-2.2579,-2.2613,-2.2616,-2.2628,-2.2626,-2.2633,-2.2553,-2.2536,-2.2625,-2.2625,-2.2625,-2.2625,-2.2625,-2.2625,-2.2006,-2.2075,-2.2091,-2.2178,-2.2206,-2.2269,-2.2296,-2.2333,-2.2367,-2.2444,-2.2491,-2.2515,-2.2556,-2.2617,-2.2669,-2.2679,-2.27,-2.2714,-2.2723,-2.2648,-2.2638,-2.2629,-2.2614,-2.2718,-2.2718,-2.2798,-2.2799,-2.28]},{"header":{"parameterUnit":"m.s-1","parameterCategory":1,"la1":30.2991,"la2":30.254,"lo1":-89.0895,"lo2":-89.0444,"dy":0.0017,"dx":0.0017,"nx":28,"ny":28,"refTime":"2024-05-06T03:00:00:Z","depth":0,"parameterNumber":3,"parameterNumberName":"V-component_of_WINDS"},"data":[0,0,0,0,0,0,0,0,0,0,0,0,0,0,0,0,0,0,0,0,0,0,0,0,0,0,0,0,0,0,0,0,0,0,0,0,0,0,0,0,0,0,0,0,0,0,0,0,0,0,0,0,0,0,0,0,0,0,3.4356,3.4357,0,3.4434,3.4435,3.4436,3.4417,3.4416,3.4414,3.4413,3.4488,3.4491,3.4495,0,0,0,0,0,0,0,0,0,0,0,0,0,3.4187,3.419,3.4356,3.4357,3.4358,3.4434,3.4435,3.4436,3.4418,3.4416,3.4414,3.4412,3.4487,3.4491,3.4495,0,0,0,0,0,0,0,0,0,0,0,0,0,3.4262,3.4191,3.4356,3.4358,3.4359,3.4434,3.4435,3.4436,3.4418,3.4416,3.4414,3.4412,3.4485,3.449,3.4495,3.4571,0,0,3.4511,3.4513,0,0,0,0,0,0,0,0,3.4258,3.4268,3.4357,3.4358,3.4359,3.4414,3.4403,3.4481,3.4419,3.4395,3.4413,3.441,3.4465,3.4471,3.4491,3.4575,3.4578,3.4511,3.4514,3.4517,3.4518,0,0,0,0,0,0,0,3.4252,3.4265,3.4387,3.4358,3.4359,3.4354,3.4362,3.4418,3.4441,3.4397,3.4396,3.4406,3.4465,3.4486,3.4492,3.4579,3.4511,3.4516,3.4519,3.4521,3.4729,3.4732,0,0,0,0,0,0,3.4247,3.426,3.4384,3.4389,3.4302,3.4359,3.4368,3.4398,3.4441,3.4445,3.4408,3.4405,3.4478,3.4486,3.4495,3.4586,3.4517,3.4521,3.4524,3.4727,3.473,3.4733,0,0,0,0,0,0,3.4243,3.4258,3.4381,3.4324,3.434,3.4364,3.4398,3.4401,3.4422,3.4449,3.4452,3.4425,3.4477,3.4488,3.4553,3.4589,3.4524,3.4528,3.4724,3.4728,3.4731,3.477,0,0,0,0,0,0,3.4238,3.4257,3.4287,3.4325,3.4343,3.4439,3.4401,3.4404,3.4431,3.4428,3.4466,3.447,3.4476,3.4545,3.4558,3.4595,3.4532,3.4721,3.4726,3.473,3.4766,3.4775,3.4783,0,0,0,0,0,3.4232,3.4293,3.4288,3.4303,3.4381,3.4441,3.4451,3.4458,3.4434,3.4464,3.4481,3.4469,3.4583,3.4552,3.4566,3.4605,3.4718,3.4724,3.473,3.4762,3.4773,3.4782,0,0,0,0,0,0,3.4256,3.4298,3.4293,3.4368,3.4402,3.4438,3.4475,3.4469,3.4508,3.4503,3.4509,3.4518,3.4584,3.4601,3.4566,3.4681,3.4647,3.4656,3.4667,3.4678,3.4686,3.468,3.4536,0,0,0,0,0,3.427,3.4317,3.4351,3.4414,3.4431,3.4451,3.4477,3.448,3.4513,3.4527,3.4549,3.4581,3.4624,3.4652,3.4693,3.4769,3.4776,3.4802,3.4811,3.4817,3.4824,3.4866,3.4878,3.4751,3.4751,3.4751,0,0,3.4299,3.4328,3.4357,3.4419,3.4445,3.4492,3.4462,3.4513,3.4547,3.4534,3.4597,3.4615,3.465,3.4721,3.4754,3.4737,3.4861,3.4825,3.483,3.4833,3.4873,3.4885,3.4895,3.4755,3.4754,3.4754,0,0,3.4376,3.4403,3.4459,3.4487,3.4527,3.454,3.4553,3.4591,3.4603,3.4667,3.4658,3.4699,3.4773,3.4799,3.4822,3.4912,3.4901,3.4925,3.4968,3.5008,3.5018,3.5027,3.5059,3.507,3.4932,3.4932,3.4932,0,3.4407,3.4479,3.4488,3.4541,3.4568,3.4561,3.4617,3.4642,3.4693,3.4712,3.4694,3.4788,3.4811,3.4888,3.491,3.4929,3.4944,3.492,3.5016,3.5025,3.5034,3.5064,3.5076,3.4935,3.4934,3.4934,3.4934,0,3.4514,3.4564,3.4604,3.4657,3.4689,3.4742,3.4759,3.479,3.4791,3.4806,3.4871,3.4899,3.4947,3.4965,3.4965,3.5043,3.5032,3.5015,3.4981,3.5048,3.5077,3.5088,3.4938,3.4937,3.4937,3.4936,0,0,3.4606,3.4665,3.4679,3.4703,3.4748,3.4786,3.484,3.4888,3.4914,3.495,3.4995,3.5059,3.5045,3.5071,3.5074,3.511,3.5179,3.5089,3.509,3.5104,3.5265,3.5277,3.529,3.5173,3.5175,3.5177,3.5262,0,3.4687,3.4783,3.4794,3.4879,3.4925,3.492,3.4966,3.4998,3.5014,3.5054,3.5071,3.5116,3.5094,3.511,3.5145,3.5163,3.5211,3.5157,3.5213,3.5215,3.5203,3.5305,3.5317,3.5396,3.5273,3.5275,3.5276,0,3.4793,3.4835,3.4925,3.4965,3.4985,3.5027,3.5072,3.5112,3.5148,3.5157,3.5187,3.5187,3.5241,3.5207,3.5281,3.5244,3.5268,3.528,3.5283,3.5288,3.5249,3.5311,3.5421,3.5432,3.5294,3.5292,3.5291,0,3.4851,3.4929,3.4994,3.5014,3.5062,3.5092,3.5113,3.5148,3.5176,3.5216,3.5234,3.5279,3.5303,3.5337,3.5348,3.5322,3.5422,3.5388,3.543,3.543,3.545,3.5448,3.5564,3.5467,3.5467,3.5466,3.5466,0,3.4939,3.4995,3.502,3.506,3.5122,3.5133,3.5194,3.5213,3.5244,3.5287,3.5284,3.5324,3.5336,3.5378,3.5387,3.5447,3.5458,3.5466,3.5467,3.5466,3.5464,3.548,3.5474,3.547,3.5469,3.5468,3.5468,0,3.5013,3.5033,3.5103,3.5144,3.5155,3.5199,3.5233,3.5271,3.5287,3.534,3.5354,3.5378,3.5427,3.5442,3.55,3.5506,3.5576,3.5573,3.5564,3.5564,3.5605,3.56,3.5734,3.5752,3.5643,3.5644,3.5645,0,3.5068,3.5111,3.5157,3.5186,3.5209,3.5256,3.5286,3.5299,3.533,3.5376,3.5408,3.5457,3.5497,3.5575,3.5597,3.5642,3.5639,3.5683,3.5645,3.5643,3.5639,3.5636,3.564,3.5689,3.569,3.5691,3.5692,0,3.5162,3.5171,3.5215,3.5263,3.5299,3.5337,3.5374,3.5397,3.5416,3.5451,3.5502,3.5533,3.5594,3.5642,3.5688,3.5709,3.5703,3.5704,3.5716,3.5714,3.5707,3.5711,3.5583,3.57,3.57,3.5699,3.5698,3.5698,3.5228,3.5266,3.5305,3.5355,3.5384,3.5419,3.5457,3.5478,3.5522,3.5574,3.5579,3.5634,3.5669,3.5731,3.5754,3.5796,3.5783,3.5801,3.5805,3.5809,3.5812,3.5701,3.5805,3.5805,3.5804,3.5804,3.5804,0,3.5322,3.5348,3.5393,3.5446,3.5485,3.5479,3.5519,3.5552,3.5601,3.5636,3.5676,3.5735,3.5782,3.5809,3.5856,3.5885,3.5883,3.5896,3.5894,3.5899,3.5821,3.5806,3.5897,3.5897,3.5897,3.5897,3.5897,3.5897,3.5376,3.544,3.5453,3.5532,3.5557,3.5612,3.5636,3.5667,3.5696,3.5762,3.5802,3.582,3.5852,3.5901,3.5944,3.5951,3.5968,3.5982,3.5987,3.5913,3.5904,3.5895,3.5881,3.5986,3.5986,3.6061,3.6062,3.6062]}]]